Location: Shenandoah County Park
(38.9356°N, 78.4524°W)
Time: 17:44:56
(UTC-05:00)

N. Korean satellite - Pass Details

Date: 04 December 2021
Orbit: 447 x 490 km, 97.3° (Epoch: 26 January)

Event Time Altitude Azimuth Distance (km) Brightness Sun altitude
Rises 06:06:05 0° 358° (N) 2,460 9.9 -13.4°
Reaches altitude 10° 06:08:20 10° 345° (NNW) 1,580 8.8 -13.0°
Maximum altitude 06:11:09 25° 288° (WNW) 950 7.4 -12.5°
Drops below altitude 10° 06:13:57 10° 232° (SW) 1,569 8.8 -12.0°
Sets 06:16:11 0° 218° (SW) 2,437 9.9 -11.6°
